EW3381 Weather Reports


Display with metric or nautical units.
time (UTC)temp
F
wind
direction
speed
MPH
gust
MPH
rain 1hr
in
rain 24hr
in
rain mn
in
humidity
%
barometer
mb
20180720194937 64 168 0.0 2.0 0.00 0.15 0.15 84 1013.0
20180720193934 64 164 0.0 0.0 0.00 0.15 0.15 83 1012.9
20180720192922 64 223 0.0 1.0 0.00 0.15 0.15 82 1013.0
20180720191929 64 204 0.0 1.0 0.00 0.15 0.15 82 1012.8
20180720190921 64 209 0.0 1.0 0.00 0.15 0.15 82 1012.8
20180720185855 64 209 0.0 2.0 0.00 0.15 0.15 81 1012.8
20180720184822 65 133 0.0 1.0 0.00 0.15 0.15 80 1012.7
20180720183822 65 254 0.0 0.0 0.00 0.15 0.15 81 1012.5
20180720182835 65 238 0.0 1.0 0.00 0.15 0.15 81 1012.5
20180720181824 65 196 0.0 3.0 0.00 0.15 0.15 80 1012.5
20180720180810 65 172 0.0 3.0 0.00 0.15 0.15 80 1012.4
20180720175810 65 162 0.0 3.0 0.00 0.15 0.15 81 1012.4
20180720174834 65 326 0.0 3.0 0.00 0.15 0.15 81 1012.4
20180720173833 65 146 0.0 3.0 0.00 0.15 0.15 80 1012.4
20180720172805 65 216 0.0 3.0 0.00 0.15 0.15 80 1012.3
20180720171755 65 191 0.0 2.0 0.00 0.15 0.15 81 1012.3
20180720170722 65 216 0.0 3.0 0.00 0.15 0.15 80 1012.2
20180720165717 65 219 0.0 3.0 0.00 0.15 0.15 80 1012.3
20180720164732 66 150 0.0 4.0 0.00 0.15 0.15 80 1012.3
20180720163731 66 184 0.0 2.0 0.00 0.15 0.15 81 1012.2
20180720162733 65 170 0.0 4.0 0.00 0.15 0.15 81 1012.2
20180720161729 65 216 1.0 4.0 0.00 0.15 0.15 82 1012.2
20180720160717 65 211 0.0 4.0 0.00 0.15 0.15 82 1012.2
20180720155718 65 163 0.0 2.0 0.00 0.15 0.15 82 1012.3
20180720154645 65 202 0.0 3.0 0.00 0.15 0.15 83 1012.3
20180720153701 65 180 0.0 3.0 0.00 0.15 0.15 84 1012.4
20180720152653 64 225 1.0 4.0 0.00 0.15 0.15 86 1012.4
20180720151647 63 259 0.0 2.0 0.00 0.15 0.15 88 1012.4
20180720150648 63 170 0.0 2.0 0.03 0.15 0.15 89 1012.4
20180720145709 63 158 0.0 0.0 0.11 0.15 0.15 88 1012.3
20180720144646 63 196 0.0 3.0 0.00 0.13 0.13 88 1012.4
20180720143656 63 150 0.0 3.0 0.00 0.12 0.12 87 1012.3
20180720142623 63 194 0.0 0.0 0.00 0.12 0.12 89 1012.4
20180720141616 63 165 1.0 2.0 0.00 0.12 0.12 90 1012.4
20180720140620 62 154 1.0 4.0 0.00 0.12 0.12 91 1012.5
20180720135604 62 162 0.0 4.0 0.00 0.12 0.12 91 1012.6
20180720134607 62 172 0.0 3.0 0.00 0.12 0.12 91 1012.5
20180720133609 62 159 0.0 4.0 0.00 0.11 0.11 90 1012.6
20180720132552 62 196 0.0 4.0 0.00 0.11 0.11 89 1012.6
20180720131552 61 165 1.0 4.0 0.00 0.11 0.11 90 1012.6
20180720130534 61 175 0.0 3.0 0.00 0.11 0.11 91 1012.7
20180720125516 61 157 1.0 3.0 0.00 0.11 0.11 91 1012.7
20180720124534 60 198 0.0 3.0 0.00 0.11 0.11 91 1012.7
20180720123539 60 225 0.0 3.0 0.00 0.11 0.11 91 1012.7
20180720122604 60 161 0.0 3.0 0.00 0.11 0.11 90 1012.7
20180720121620 60 219 0.0 3.0 0.00 0.10 0.10 90 1012.8
20180720120550 60 222 0.0 5.0 0.00 0.10 0.10 87 1012.7
20180720115610 60 179 1.0 5.0 0.00 0.10 0.10 88 1012.8
20180720114631 60 207 0.0 4.0 0.00 0.10 0.10 88 1012.7
20180720113653 60 198 0.0 4.0 0.00 0.10 0.10 87 1012.7
20180720112714 60 158 1.0 3.0 0.00 0.10 0.10 87 1012.7
20180720111718 60 218 1.0 3.0 0.00 0.10 0.10 87 1012.7
20180720110658 60 186 1.0 5.0 0.00 0.10 0.10 87 1012.7
20180720105656 60 244 1.0 5.0 0.00 0.10 0.10 87 1012.7
20180720104630 60 192 1.0 5.0 0.00 0.10 0.10 88 1012.7
20180720103647 59 153 1.0 5.0 0.00 0.10 0.10 90 1012.8
20180720102617 59 182 1.0 5.0 0.00 0.10 0.10 90 1012.8
20180720101640 58 125 1.0 3.0 0.00 0.10 0.10 91 1012.7
20180720100608 58 152 0.0 3.0 0.00 0.10 0.10 91 1012.9
20180720095600 58 174 1.0 5.0 0.00 0.10 0.10 90 1012.9
20180720094622 58 183 1.0 5.0 0.00 0.10 0.10 90 1013.0
20180720093557 58 217 0.0 2.0 0.00 0.10 0.10 90 1013.0
20180720092537 57 238 0.0 1.0 0.00 0.10 0.10 90 1013.0
20180720091512 57 202 0.0 0.0 0.00 0.10 0.10 90 1013.1
20180720090455 57 154 0.0 0.0 0.00 0.10 0.10 91 1013.2
20180720085421 57 163 0.0 0.0 0.00 0.10 0.10 92 1013.2
20180720084446 57 158 0.0 0.0 0.00 0.10 0.10 92 1013.3
20180720083434 56 175 0.0 0.0 0.00 0.10 0.10 93 1013.4
20180720082448 56 215 0.0 0.0 0.00 0.10 0.10 93 1013.4
20180720081450 56 229 0.0 2.0 0.00 0.10 0.10 93 1013.4
20180720080436 56 217 0.0 2.0 0.00 0.10 0.10 93 1013.5
20180720075434 56 213 0.0 1.0 0.00 0.10 0.10 93 1013.5
20180720074406 55 165 0.0 2.0 0.00 0.10 0.10 93 1013.6
20180720073353 55 227 0.0 2.0 0.00 0.10 0.10 93 1013.6
20180720072321 55 238 0.0 2.0 0.00 0.10 0.10 93 1013.6
20180720071332 55 195 0.0 2.0 0.00 0.10 0.10 93 1013.6
20180720070333 55 198 0.0 3.0 0.00 0.10 0.10 93 1013.6
20180720065318 55 228 0.0 3.0 0.00 0.10 0.10 93 1013.6
20180720064335 54 165 0.0 0.0 0.03 0.10 0.10 93 1013.7
20180720063336 54 225 0.0 2.0 0.04 0.09 0.09 93 1013.8
20180720062314 54 247 0.0 2.0 0.05 0.08 0.08 93 1013.9
20180720061325 54 210 0.0 1.0 0.07 0.07 0.07 94 1014.0
20180720060252 54 213 0.0 0.0 0.06 0.07 0.07 93 1014.2
20180720055304 54 219 0.0 1.0 0.03 0.05 0.05 92 1014.2
20180720054229 54 221 0.0 0.0 0.07 0.04 0.05 91 1014.3
20180720053213 54 204 0.0 0.0 0.06 0.03 0.03 91 1014.3
20180720052209 55 198 0.0 0.0 0.04 0.02 0.03 90 1014.2
20180720051142 55 197 0.0 0.0 0.03 0.01 0.01 88 1014.3
20180720050133 55 197 0.0 0.0 0.04 0.01 0.01 87 1014.2
20180720045115 55 197 0.0 0.0 0.00 0.00 0.00 86 1014.2
20180720044128 55 197 0.0 0.0 0.00 0.00 0.00 85 1014.1
20180720043101 55 207 0.0 0.0 0.00 0.00 0.00 85 1014.1
20180720042040 55 233 0.0 0.0 0.00 0.00 0.00 85 1014.2
20180720041039 55 226 0.0 1.0 0.00 0.00 0.00 86 1014.3
20180720040038 54 212 0.0 0.0 0.00 0.00 0.00 86 1014.3
20180720035041 54 227 0.0 1.0 0.00 0.00 0.00 86 1014.4
20180720034018 54 200 0.0 2.0 0.00 0.00 0.00 86 1014.5
20180720033003 54 199 0.0 2.0 0.00 0.00 0.00 86 1014.5
20180720032011 54 204 0.0 1.0 0.00 0.00 0.00 86 1014.7
20180720031027 54 198 0.0 1.0 0.00 0.00 0.00 86 1014.8
20180720030049 54 215 0.0 1.0 0.00 0.00 0.00 86 1014.9
20180720025019 54 210 0.0 1.0 0.00 0.00 0.00 86 1015.0
20180720024017 54 206 0.0 1.0 0.00 0.00 0.00 85 1015.2
20180720023028 54 240 0.0 1.0 0.00 0.00 0.00 85 1015.2
20180720022005 54 225 0.0 1.0 0.00 0.00 0.00 84 1015.3
20180720021002 55 215 0.0 1.0 0.00 0.00 0.00 83 1015.4
20180720020004 55 200 0.0 1.0 0.00 0.00 0.00 81 1015.5
20180720015011 55 204 0.0 0.0 0.00 0.00 0.00 81 1015.6
20180720014007 55 213 0.0 0.0 0.00 0.00 0.00 81 1015.6
20180720013012 55 230 0.0 0.0 0.00 0.00 0.00 82 1015.8
20180720011937 55 205 0.0 0.0 0.00 0.00 0.00 82 1015.9
20180720010908 55 167 0.0 0.0 0.00 0.00 0.00 81 1016.0
20180720005841 55 192 0.0 0.0 0.00 0.00 0.00 81 1016.2
20180720004829 55 203 0.0 0.0 0.00 0.00 0.00 80 1016.2
20180720003818 55 162 0.0 0.0 0.00 0.00 0.00 79 1016.4
20180720002811 55 146 0.0 0.0 0.00 0.00 0.00 77 1016.4
20180720001751 55 196 0.0 0.0 0.00 0.00 0.00 76 1016.3
20180720000734 55 207 0.0 0.0 0.00 0.00 0.00 76 1016.4
20180719235712 55 200 0.0 1.0 0.00 0.00 0.00 76 1016.4
20180719234707 56 209 0.0 0.0 0.00 0.00 0.00 75 1016.5
20180719233645 56 204 0.0 0.0 0.00 0.00 0.00 75 1016.6
20180719232632 56 209 0.0 2.0 0.00 0.00 0.00 75 1016.7
20180719231627 56 170 0.0 1.0 0.00 0.00 0.00 75 1016.8
20180719230642 56 201 0.0 1.0 0.00 0.00 0.00 75 1016.8
20180719225704 56 214 0.0 1.0 0.00 0.00 0.00 74 1016.8
20180719224631 56 170 0.0 1.0 0.00 0.00 0.00 73 1016.9
20180719223559 56 158 0.0 0.0 0.00 0.00 0.00 73 1016.9
20180719222550 56 182 0.0 0.0 0.00 0.00 0.00 72 1017.1
20180719221523 57 171 0.0 1.0 0.00 0.00 0.00 72 1017.2
20180719220522 57 188 0.0 1.0 0.00 0.00 0.00 72 1017.2
20180719215502 57 163 0.0 2.0 0.00 0.00 0.00 72 1017.3
20180719214430 57 168 0.0 1.0 0.00 0.00 0.00 70 1017.5
20180719213436 58 213 0.0 1.0 0.00 0.00 0.00 70 1017.5
20180719212435 58 225 0.0 1.0 0.00 0.00 0.00 69 1017.5
20180719210418 59 209 0.0 0.0 0.00 0.00 0.00 68 1017.6
20180719205435 59 222 0.0 2.0 0.00 0.00 0.00 67 1017.6
20180719204410 60 164 0.0 0.0 0.00 0.00 0.00 66 1017.7
20180719203431 60 217 0.0 5.0 0.00 0.00 0.00 65 1017.7
20180719202429 60 136 0.0 3.0 0.00 0.00 0.00 63 1017.8
20180719201430 61 206 0.0 0.0 0.00 0.00 0.00 62 1017.7
20180719200413 61 219 0.0 1.0 0.00 0.00 0.00 61 1017.7